User: anonymous   Login
Location: *
(52.2090°N, 4.1550°W)
Time: 23:16:33
(UTC+00:00)
Language:

Resurs 01 Rocket - Orbit

View from above orbital plane
View from above orbital plane
View from above satellite
View from above satellite

Ground track
Ground track

The orbit data is extracted from the following two-line orbital elements,

1 23343U 94074B   19262.26922633 -.00000009  00000-0  60549-5 0  9991
2 23343  98.0426 312.0140 0005826 314.9010  86.2093 14.76790671338455
Epoch (UTC): 19 September 2019 06:27:41
Eccentricity: 0.0005826
inclination: 98.0426°
perigee height: 635 km
apogee height: 643 km
right ascension of ascending node: 312.0140°
argument of perigee: 314.9010°
revolutions per day: 14.76790671
mean anomaly at epoch: 86.2093°
orbit number at epoch: 33845

The dashed part of the orbit path shows where the satellite is in the earth's shadow,  

DLR